TimeMDT,TemperatureF,Dew PointF,Humidity,Sea Level PressureIn,VisibilityMPH,Wind Direction,Wind SpeedMPH,Gust SpeedMPH,PrecipitationIn,Events,Conditions,WindDirDegrees,DateUTC
12:53 AM,39.0,19.0,45,30.16,10.0,NNW,5.8,-,N/A,,Clear,330,2013-10-06 06:53:00
1:53 AM,35.1,18.0,50,30.16,10.0,NNE,5.8,-,N/A,,Clear,30,2013-10-06 07:53:00
2:53 AM,34.0,17.1,50,30.17,10.0,NNW,9.2,-,N/A,,Clear,340,2013-10-06 08:53:00
3:53 AM,32.0,17.1,54,30.18,10.0,NE,5.8,-,N/A,,Clear,40,2013-10-06 09:53:00
4:53 AM,36.0,14.0,41,30.16,10.0,North,6.9,-,N/A,,Clear,350,2013-10-06 10:53:00
5:53 AM,35.1,12.9,40,30.18,10.0,Calm,Calm,-,N/A,,Clear,0,2013-10-06 11:53:00
6:53 AM,30.9,12.0,46,30.23,10.0,North,4.6,-,N/A,,Clear,360,2013-10-06 12:53:00
7:53 AM,39.9,10.9,31,30.23,10.0,North,9.2,-,N/A,,Clear,350,2013-10-06 13:53:00
8:53 AM,48.0,12.0,24,30.23,10.0,NNE,5.8,-,N/A,,Clear,20,2013-10-06 14:53:00
9:53 AM,54.0,12.9,20,30.20,10.0,NE,6.9,-,N/A,,Clear,40,2013-10-06 15:53:00
10:53 AM,59.0,8.1,13,30.20,10.0,ESE,5.8,-,N/A,,Clear,120,2013-10-06 16:53:00
11:53 AM,62.1,5.0,10,30.17,10.0,SSE,8.1,-,N/A,,Clear,150,2013-10-06 17:53:00
12:53 PM,63.0,10.9,13,30.16,10.0,SSW,11.5,-,N/A,,Clear,200,2013-10-06 18:53:00
1:53 PM,64.0,12.0,13,30.14,10.0,South,9.2,20.7,N/A,,Clear,180,2013-10-06 19:53:00
2:53 PM,64.9,8.1,11,30.13,10.0,SSW,12.7,19.6,N/A,,Clear,200,2013-10-06 20:53:00
3:53 PM,66.0,8.1,10,30.13,10.0,South,13.8,17.3,N/A,,Clear,170,2013-10-06 21:53:00
4:53 PM,64.9,10.9,12,30.11,10.0,SSE,16.1,-,N/A,,Clear,160,2013-10-06 22:53:00
5:53 PM,62.1,12.0,14,30.14,10.0,South,13.8,-,N/A,,Clear,170,2013-10-06 23:53:00
6:53 PM,53.1,15.1,22,30.21,10.0,South,12.7,-,N/A,,Clear,170,2013-10-07 00:53:00
7:53 PM,51.1,16.0,25,30.19,10.0,South,13.8,-,N/A,,Clear,180,2013-10-07 01:53:00
8:53 PM,44.1,16.0,32,30.22,10.0,South,8.1,-,N/A,,Clear,180,2013-10-07 02:53:00
9:53 PM,42.1,17.1,37,30.21,10.0,South,8.1,-,N/A,,Clear,180,2013-10-07 03:53:00
10:53 PM,41.0,17.1,38,30.19,10.0,NNE,5.8,-,N/A,,Clear,20,2013-10-07 04:53:00
11:53 PM,39.9,18.0,41,30.18,10.0,Calm,Calm,-,N/A,,Clear,0,2013-10-07 05:53:00